Hourly Data Report for October 17, 2016

All times are specified in Local Standard Time (LST). Add 1 hour to adjust for Daylight Saving Time where and when it is observed.

PETAWAWA AWOS 2
ONTARIO

45°57'00.000" N
77°19'00.000" W
130.10 m
6106396
71625
YWA

Download Data

Hourly Data (October 2016)
Hourly Data Report for October 17, 2016
Temp Definition
°C
Dew Point Temp Definition
°C
Rel Hum Definition
%
Wind Dir Definition
10's deg

Wind Spd Definition
km/h
Visibility Definition
km
Stn Press Definition
kPa
Hmdx Definition


Wind Chill Definition


Weather Definition


TIME
00:00 11.7 10.6 93 32 11 14.5 99.94     LegendNANA
01:00 9.8 7.1 83 34 17 14.5 99.99     LegendNANA
02:00 7.5 5.4 86 30 7 14.5 100.04     LegendNANA
03:00 6.3 5.1 92 30 6 14.5 100.02     LegendNANA
04:00 4.2 4.0 99 30 4 14.5 100.07     LegendNANA
05:00 5.1 3.6 90 34 11 14.5 100.04     LegendNANA
06:00 3.8 3.6 99 33 9 14.5 100.00     LegendNANA
07:00 3.6 2.8 94 32 9 14.5 100.09     LegendNANA
08:00 6.2 3.5 83 5 7 14.5 100.08     LegendNANA
09:00 7.4 3.6 77 7 7 14.5 100.03     LegendNANA
10:00 8.7 4.3 74 14 11 14.5 100.03     LegendNANA
11:00 8.8 5.1 78 12 9 14.5 99.91     LegendNANA
12:00 9.6 5.0 73 12 4 14.5 99.85     LegendNANA
13:00 10.4 5.4 71 11 7 14.5 99.81     LegendNANA
14:00 10.5 5.8 73 11 17 14.5 99.56     LegendNANA
15:00 10.4 7.2 80 13 17 14.5 99.43     Rain
16:00 10.7 7.8 82 9 9 14.5 99.44     LegendNANA
17:00 11.1 7.8 80 9 11 14.5 99.38     LegendNANA
18:00 11.3 8.0 80 9 7 14.5 99.41     LegendNANA
19:00 11.4 8.3 81 9 9 14.5 99.39     LegendNANA
20:00 11.8 8.1 78 14 9 14.5 99.41     LegendNANA
21:00 11.7 8.9 83 12 19 14.5 99.33     LegendNANA
22:00 11.4 10.1 92 14 9 14.5 99.30     Rain
23:00 11.6 10.0 90 13 19 14.5 99.22     LegendNANA

Notes on Data Quality.

Legend

  • E = Estimated
  • M = Missing
  • NA = Not Available
  • ‡ = Partner data that is not subject to review by the National Climate Archives
Date modified: